Weather in Oshakati

Namibia     17°46′57″S   15°42′11″E
temp.,
°C
wind,
m/s
gust,
m/s
humid.,
%
clouds,
%
prec.,
mm/h
press.,
hPa
HPBL,
m
19 may, wed
wed1923:00+20e45260 0.0 101664
02:00+18ne33325 0.0 101636
05:00+17ene48392 0.0 1016130
08:00+16n33444 0.0 101973
11:00+24ne46295 0.0 1018640
14:00+29nne23200 0.0 10132344
17:00+29wnw03190 0.0 10122732
20:00+25sse34252 0.0 101331
20 may, thu
thu2023:00+23ese44282 0.0 101542
02:00+20e33323 0.0 101626
05:00+18sw33360 0.0 101621
08:00+17ssw34400 0.0 101858
11:00+24sse33270 0.0 1018596
14:00+27s11210 0.0 10141243
17:00+28sw11200 0.0 10131416
20:00+24sw22250 0.0 101515
21 may, fri
fri2123:00+23ssw44250 0.0 101530
02:00+21ese33300 0.0 101517
05:00+18sse34360 0.0 101642
08:00+18ese22380 0.0 101827
11:00+24e23265 0.0 1018520
14:00+29ese13215 0.0 10141751
17:00+30w13190 0.0 10122418
20:00+25sw46260 0.0 101476
22 may, sat
sat2223:00+23s44290 0.0 101652
02:00+21ese33320 0.0 101540
05:00+19e58360 0.0 1016139
08:00+17ene410400 0.0 1019227
11:00+25ene710230 0.0 1018793
14:00+30ne66170 0.0 10142542
17:00+31ene45160 0.0 10122812
20:00+24ese46240 0.0 101574
23 may, sun
sun2323:00+22e512270 0.0 1017200
02:00+19ene412300 0.0 1017230
05:00+17ene515350 0.0 1018305
08:00+17ene517360 0.0 1020423
11:00+26ene911210 0.0 1019931
14:00+30ene67160 0.0 10162558
17:00+30e46150 0.0 10142819
20:00+24e47220 0.0 101798